Vorticity
12 12 12 12 11 10 10 10 10 10 10 10 10 10 10 10 10 10 10 10 9 9 8 7 7 6 5 4 4 4 4 5 5 5 5 6 5 5 5 5 5 5 5 4 5 5 5 6 5 5 4 3 2 3 3 3 3 3 3 3 3 4 6 8 9 10 10 9 8
13 13 13 13 12 12 11 10 10 9 9 9 9 9 9 9 8 8 8 8 8 7 7 7 7 7 6 6 6 6 6 5 5 5 5 5 5 5 5 4 4 4 4 4 5 6 6 5 4 3 1 1 2 3 4 4 4 4 4 4 5 6 7 8 9 9 9 9 8
12 12 12 12 12 12 11 10 9 8 7 7 7 7 7 7 7 7 7 7 6 6 6 6 7 7 6 6 6 6 6 5 5 4 4 4 4 4 4 4 4 4 4 5 7 7 7 5 4 3 2 3 4 6 7 7 6 6 6 6 6 7 8 9 9 9 9 9 8
11 11 11 11 11 11 10 10 9 8 7 7 6 5 5 5 5 5 5 5 5 6 6 6 6 6 6 5 5 5 5 5 4 4 4 4 4 4 3 3 3 4 5 7 7 7 6 5 4 4 5 6 7 8 9 8 8 7 7 7 8 9 9 10 10 10 10 9 9
12 11 11 11 10 10 10 9 8 8 7 7 6 5 4 4 4 4 4 4 5 5 5 5 5 5 4 4 4 4 4 4 3 3 3 3 3 3 3 3 4 6 7 8 6 5 4 4 4 5 6 7 8 9 8 8 7 7 8 8 9 10 10 10 9 8 7 7 8
13 13 12 12 11 10 10 9 9 8 8 8 7 6 5 5 5 4 4 4 4 4 4 4 3 3 3 3 3 3 3 3 3 3 2 2 3 3 3 4 7 8 8 6 4 3 4 5 5 6 7 8 8 8 7 7 7 7 8 8 9 9 8 6 5 4 3 4 6
14 14 13 13 13 12 11 10 9 9 9 9 9 8 7 6 6 5 5 4 3 3 3 3 2 2 2 2 2 2 2 2 2 2 2 2 3 4 5 6 6 5 3 2 2 4 5 6 6 7 7 8 8 7 7 7 7 8 8 8 8 7 7 6 5 5 5 6 5
14 14 14 14 13 13 12 11 11 11 11 11 11 10 9 8 7 7 6 5 5 4 4 3 3 3 3 2 2 2 3 3 3 3 4 4 5 6 6 7 7 6 6 5 6 6 6 6 7 7 7 7 7 7 7 7 7 8 8 8 8 8 8 7 7 8 8 7 5
13 14 14 14 14 14 13 13 13 13 13 13 12 12 11 10 10 9 8 8 7 7 6 6 5 5 5 5 5 5 5 6 6 6 7 7 7 7 8 7 7 7 7 7 7 7 6 6 7 6 6 6 6 6 6 7 7 7 8 7 7 7 7 7 7 7 6 5 4
13 13 13 13 13 13 13 13 14 15 15 14 14 13 13 12 12 11 11 11 10 9 9 9 8 8 8 8 8 8 8 8 8 8 9 8 8 8 8 7 7 7 7 8 7 7 7 7 7 7 7 7 7 7 7 7 8 8 8 8 8 7 7 7 6 6 6 6 9
13 13 13 12 12 12 12 12 13 14 15 15 14 13 13 13 13 13 12 12 11 11 11 10 10 9 9 9 9 9 9 9 9 9 9 8 8 8 8 8 8 8 8 8 9 9 9 8 8 8 8 8 9 9 9 9 10 10 10 9 10 9 9 8 9 11 13 15 17
13 12 12 12 11 11 12 12 12 13 14 14 14 13 13 13 13 13 12 12 12 12 11 11 11 10 10 10 10 10 10 9 9 8 8 8 8 8 8 9 9 9 9 9 10 10 10 10 10 10 9 9 10 11 11 12 12 12 12 12 12 13 13 14 15 17 19 19 18
12 12 11 11 11 11 11 11 11 12 13 14 13 13 13 13 13 12 12 12 12 12 12 12 11 11 11 11 11 11 10 10 10 10 9 9 10 10 10 10 10 10 10 10 11 11 11 11 11 11 11 11 12 12 13 14 15 15 15 16 16 16 17 18 19 19 18 17 15
12 12 11 11 11 11 11 11 11 12 12 13 13 13 13 13 13 13 12 12 12 12 12 12 12 11 11 11 12 12 12 12 12 12 12 12 12 12 12 12 12 11 11 11 11 12 12 12 13 13 14 14 15 15 15 16 16 17 17 18 18 18 19 19 18 16 14 12 12
12 12 11 11 11 11 11 10 10 11 11 11 11 12 12 12 12 12 12 12 11 11 11 11 11 11 11 12 12 12 12 13 13 13 13 13 13 13 13 13 12 12 12 12 12 13 13 14 14 15 15 16 16 16 16 16 16 16 16 17 17 17 17 16 13 11 10 9 11
13 13 12 11 11 10 10 10 9 9 10 9 10 10 11 11 11 11 11 11 11 11 11 11 11 11 11 12 12 12 13 13 13 13 13 13 13 13 13 13 13 13 13 13 13 13 14 14 15 15 15 16 16 16 15 15 15 15 15 15 15 14 13 11 9 7 7 8 13
14 14 13 12 11 11 10 9 9 9 9 9 9 10 10 10 10 11 11 11 10 10 11 11 11 10 10 11 11 12 12 12 12 13 13 12 12 12 12 12 12 12 12 13 13 13 14 14 14 15 15 15 14 14 14 14 13 13 13 12 12 11 10 8 7 6 6 9 17
15 14 14 13 12 11 11 10 10 10 10 9 10 10 10 10 10 10 10 10 10 10 10 10 10 10 9 9 9 9 9 9 10 10 11 11 11 11 11 12 12 12 12 13 13 13 14 14 14 14 14 14 14 13 13 13 13 12 12 11 10 9 9 7 6 6 8 12 19
14 13 13 12 11 11 10 10 10 9 10 10 10 10 10 10 10 9 9 9 10 9 9 8 9 9 8 7 7 7 8 8 8 9 10 11 12 12 12 12 13 13 13 13 13 14 14 14 14 14 14 13 13 13 13 13 13 12 12 11 10 10 9 8 8 9 11 14 16
11 11 10 10 10 9 9 9 9 9 9 9 9 9 9 9 9 9 9 9 9 9 8 8 8 7 7 7 6 7 7 8 9 11 12 13 13 13 13 13 13 13 13 13 13 13 14 14 14 14 14 14 14 14 14 14 14 13 13 12 11 11 11 11 12 13 14 15 12
7 7 7 8 8 8 8 8 8 8 8 9 9 9 9 9 9 9 9 8 8 8 8 8 7 7 6 6 7 7 8 10 11 13 13 14 14 14 13 13 13 13 13 13 13 13 13 14 14 14 14 15 15 15 15 15 14 14 14 13 13 13 14 14 15 16 17 17 13
6 6 7 7 8 8 8 8 9 9 9 9 9 9 9 9 10 10 9 8 8 8 8 8 8 7 7 7 8 9 10 12 13 14 14 14 14 14 13 13 13 13 13 13 13 13 14 14 14 15 15 15 15 15 15 15 14 14 14 14 15 15 15 16 15 15 16 16 14
9 10 10 10 10 10 11 11 11 11 11 11 12 12 12 12 12 12 11 11 11 10 10 10 9 9 9 9 10 12 13 14 15 15 14 14 14 14 14 13 13 13 13 13 13 14 14 14 14 14 14 14 14 14 13 13 12 13 14 17 18 18 17 15 13 12 12 12 11
14 14 14 13 13 13 13 13 13 14 14 15 15 16 16 16 16 15 15 15 14 14 13 12 12 12 12 13 14 15 15 15 14 14 14 14 14 14 14 14 14 13 13 13 13 14 14 13 12 12 13 13 12 11 11 10 10 12 14 17 20 20 18 14 11 9 8 7 8
15 14 14 13 13 13 13 14 15 17 18 19 20 21 21 21 20 20 20 19 18 17 16 15 15 16 16 16 16 15 14 14 14 14 14 15 15 15 15 14 14 14 14 13 13 14 14 14 12 11 11 11 10 10 10 10 11 11 12 14 16 17 17 15 13 11 10 9 10
13 13 13 13 14 15 16 18 20 21 22 24 25 25 26 26 25 24 23 22 21 20 19 19 18 17 17 15 14 13 13 13 14 14 15 15 15 15 15 14 14 15 15 15 15 14 14 14 14 13 12 11 11 11 11 11 11 11 11 11 11 11 12 13 14 14 14 14 14
14 15 16 16 17 19 21 22 23 25 26 27 28 29 28 28 27 25 24 23 22 21 20 18 16 14 13 11 11 12 12 13 14 15 15 15 14 14 14 14 15 15 16 16 16 17 16 16 16 15 15 13 13 12 11 11 10 10 10 10 10 9 9 9 10 12 13 14 14
17 17 18 18 20 21 23 23 25 26 27 28 28 28 28 27 25 24 23 21 19 17 15 13 11 10 10 10 11 12 13 14 15 15 14 13 13 12 12 12 12 13 13 14 15 16 16 17 16 15 15 13 13 12 11 11 11 11 12 12 13 13 13 13 14 14 15 17 18
16 17 17 18 19 20 21 23 24 25 24 25 25 25 24 23 22 20 18 15 13 12 10 9 8 9 10 11 12 13 14 14 14 13 11 11 10 10 10 10 10 10 11 11 12 13 13 13 13 13 13 13 14 14 15 16 17 18 19 20 21 21 22 23 23 23 24 24 24
15 16 16 17 18 19 20 21 21 21 20 21 21 20 19 17 15 13 11 10 9 8 7 7 8 9 10 12 12 13 13 12 10 9 9 8 9 9 10 11 12 12 13 13 13 13 14 14 15 16 18 19 21 23 25 26 27 28 28 28 28 27 27 26 26 25 24 23 22
15 16 16 17 18 19 19 19 18 18 18 17 16 15 13 12 10 9 8 7 6 6 7 8 9 9 10 11 11 11 10 9 8 8 9 10 11 12 14 15 16 17 18 18 19 20 21 22 23 25 26 27 28 29 29 28 27 26 24 23 22 20 19 18 17 15 14 13 12
15 16 17 18 19 19 18 17 17 16 15 14 12 11 9 8 7 6 6 6 6 6 7 8 8 9 10 10 10 10 10 10 11 12 14 16 18 19 21 22 23 23 24 25 25 26 26 27 27 27 26 25 23 21 19 17 15 13 11 10 9 8 7 7 6 5 4 4 3
16 17 18 20 20 19 18 16 15 14 12 11 10 8 7 6 6 6 6 6 7 7 8 9 10 11 12 14 15 16 17 19 20 22 23 24 25 26 27 27 27 27 27 27 26 25 23 22 20 18 16 13 11 9 7 5 4 3 3 2 2 2 2 2 1 1 1 1 1
16 17 19 20 20 19 18 16 14 13 12 10 9 8 7 6 7 7 8 8 9 11 12 15 17 19 21 23 24 26 27 27 28 28 29 29 29 28 27 27 25 23 22 20 17 15 13 11 9 7 5 4 3 2 2 2 2 1 1 1 2 2 2 2 2 3 3 3 3
15 16 18 19 19 19 18 16 15 14 12 11 10 10 9 9 10 11 13 14 16 19 21 24 26 27 28 29 30 29 29 29 28 28 26 25 24 22 20 18 15 13 11 9 7 5 4 3 3 2 2 2 2 2 2 3 3 3 3 3 4 4 4 5 5 5 6 6 6
14 15 16 17 18 18 18 17 16 15 14 13 13 13 14 15 17 18 20 22 24 26 27 28 28 28 27 26 25 24 23 23 21 19 17 15 13 11 10 8 6 5 4 3 3 3 3 3 3 3 3 3 3 4 4 5 5 5 6 6 7 7 7 8 8 9 9 9 10
13 14 14 15 16 17 17 17 17 16 16 16 17 18 19 21 22 23 24 24 25 25 24 23 22 20 19 18 17 16 14 13 11 10 8 7 6 5 5 4 4 3 3 3 3 4 4 4 4 4 4 4 5 5 6 6 7 8 8 9 9 10 10 11 11 12 12 12 12
13 13 13 13 14 15 15 16 16 16 17 18 19 20 20 21 21 20 20 19 18 17 15 14 13 12 11 10 9 8 7 7 6 6 5 5 5 5 4 4 4 4 4 4 4 4 4 4 4 5 5 5 6 7 7 8 9 10 10 11 11 12 12 12 12 13 13 13 13
12 12 12 12 12 12 13 14 14 15 16 16 16 16 16 16 15 13 12 11 11 9 8 7 7 7 6 6 6 6 6 6 5 5 5 5 5 5 5 5 5 5 5 4 4 4 4 4 5 5 6 6 7 8 8 9 10 10 11 11 12 12 12 12 12 12 12 12 12
11 11 11 11 11 11 11 11 12 12 13 12 12 11 11 10 9 8 8 7 7 7 6 6 6 5 5 6 6 5 5 6 6 6 5 5 5 5 5 5 5 5 4 4 4 4 4 4 5 5 6 6 7 8 8 9 9 10 11 11 11 11 11 11 11 11 10 10 10
10 10 10 10 10 10 10 9 10 10 10 10 9 8 8 7 7 6 6 7 7 6 6 6 6 5 5 6 6 5 5 6 6 6 6 5 5 5 5 5 5 5 4 4 4 4 4 4 5 5 6 6 7 7 8 8 9 9 10 11 11 11 11 11 11 11 10 10 10
Height
3108 3109 3109 3109 3109 3109 3109 3109 3109 3110 3110 3109 3109 3108 3108 3108 3107 3107 3107 3107 3107 3107 3108 3108 3109 3109 3109 3110 3110 3110 3110 3110 3110 3110 3110 3110 3110 3110 3110 3110 3110 3109 3109 3108 3108 3107 3107 3106 3106 3106 3105 3105 3105 3104 3103 3103 3102 3102 3102 3101 3101 3100 3099 3098 3097 3097 3096 3095 3094
3106 3106 3106 3107 3107 3107 3107 3107 3107 3107 3107 3107 3107 3107 3106 3106 3105 3105 3105 3105 3105 3105 3106 3106 3107 3107 3107 3108 3108 3108 3108 3108 3108 3108 3108 3108 3108 3108 3108 3108 3107 3107 3107 3106 3106 3106 3105 3105 3104 3104 3103 3103 3103 3102 3102 3101 3101 3100 3099 3099 3098 3097 3097 3096 3095 3095 3094 3093 3092
3103 3104 3104 3104 3104 3104 3105 3105 3105 3105 3104 3104 3105 3105 3104 3103 3103 3103 3103 3103 3103 3104 3104 3104 3105 3105 3106 3106 3106 3106 3106 3106 3106 3106 3106 3106 3106 3106 3106 3105 3105 3105 3104 3104 3104 3104 3103 3103 3102 3102 3102 3101 3101 3100 3099 3099 3098 3098 3097 3097 3096 3095 3095 3094 3093 3093 3092 3091 3091
3101 3101 3101 3102 3102 3102 3102 3102 3102 3102 3102 3102 3102 3102 3102 3101 3101 3101 3101 3101 3102 3102 3102 3103 3103 3104 3104 3104 3104 3104 3103 3103 3103 3103 3103 3103 3103 3103 3103 3103 3102 3102 3102 3102 3102 3101 3101 3101 3100 3100 3099 3099 3098 3097 3097 3096 3096 3095 3095 3094 3094 3093 3092 3092 3091 3091 3090 3089 3089
3099 3099 3099 3099 3099 3099 3100 3100 3099 3099 3099 3100 3100 3100 3100 3100 3100 3100 3100 3100 3100 3101 3101 3102 3102 3102 3102 3102 3102 3101 3101 3101 3101 3101 3101 3101 3101 3101 3100 3100 3100 3099 3099 3099 3099 3099 3098 3098 3097 3097 3097 3096 3096 3095 3094 3094 3093 3092 3092 3092 3091 3091 3090 3089 3088 3088 3087 3087 3086
3096 3097 3097 3097 3097 3097 3097 3097 3097 3097 3097 3098 3098 3098 3098 3098 3099 3099 3099 3099 3099 3099 3099 3100 3100 3100 3100 3100 3099 3099 3099 3099 3099 3098 3098 3098 3098 3097 3097 3097 3097 3096 3096 3096 3095 3095 3095 3095 3095 3094 3094 3093 3092 3092 3092 3091 3091 3090 3090 3089 3088 3088 3087 3086 3086 3085 3085 3084 3083
3094 3094 3094 3094 3094 3094 3094 3094 3094 3094 3095 3096 3097 3097 3097 3097 3097 3098 3098 3098 3098 3098 3098 3098 3098 3098 3097 3097 3097 3097 3097 3097 3097 3096 3096 3096 3095 3095 3095 3094 3094 3094 3093 3093 3093 3092 3092 3092 3092 3091 3091 3090 3090 3089 3089 3088 3088 3087 3087 3086 3086 3085 3084 3084 3083 3082 3082 3081 3081
3092 3092 3092 3092 3092 3092 3091 3091 3092 3092 3093 3094 3095 3095 3096 3096 3096 3096 3096 3097 3097 3096 3096 3096 3096 3096 3095 3095 3095 3095 3095 3095 3095 3094 3094 3093 3093 3093 3092 3092 3092 3092 3091 3091 3091 3090 3090 3089 3089 3088 3088 3087 3087 3087 3086 3086 3085 3084 3084 3083 3083 3082 3082 3081 3080 3080 3079 3078 3077
3089 3089 3089 3089 3089 3089 3089 3089 3089 3090 3091 3092 3093 3094 3094 3094 3094 3095 3095 3095 3094 3094 3094 3094 3093 3093 3093 3093 3093 3093 3093 3093 3092 3092 3092 3091 3091 3091 3090 3090 3090 3089 3088 3088 3088 3087 3087 3087 3086 3086 3085 3085 3084 3084 3083 3083 3082 3082 3081 3081 3080 3079 3079 3078 3077 3077 3076 3075 3074
3087 3087 3087 3087 3087 3087 3087 3087 3087 3088 3089 3090 3091 3092 3092 3092 3092 3092 3092 3092 3092 3092 3092 3091 3091 3091 3091 3091 3091 3090 3090 3090 3090 3090 3089 3089 3088 3088 3088 3087 3087 3086 3086 3085 3085 3084 3084 3083 3083 3082 3082 3082 3081 3081 3080 3080 3079 3079 3078 3078 3077 3077 3076 3075 3075 3074 3073 3072 3071
3086 3085 3085 3085 3085 3085 3085 3085 3085 3086 3087 3087 3088 3089 3089 3090 3090 3090 3090 3090 3090 3089 3089 3089 3088 3088 3088 3088 3088 3088 3087 3087 3087 3087 3087 3086 3086 3086 3085 3084 3084 3083 3083 3082 3082 3081 3081 3081 3080 3080 3079 3079 3078 3078 3077 3077 3076 3076 3075 3075 3074 3073 3073 3072 3072 3071 3070 3069 3067
3084 3083 3083 3083 3083 3082 3082 3083 3083 3083 3084 3085 3086 3087 3087 3087 3087 3087 3087 3087 3087 3087 3087 3086 3086 3085 3085 3085 3085 3085 3085 3085 3085 3084 3084 3084 3083 3083 3082 3082 3081 3081 3080 3079 3079 3078 3078 3078 3077 3077 3076 3076 3075 3075 3074 3074 3073 3073 3072 3072 3071 3070 3070 3069 3068 3067 3067 3065 3064
3082 3082 3082 3081 3081 3081 3081 3081 3081 3082 3082 3083 3083 3084 3084 3084 3085 3085 3085 3084 3084 3084 3084 3083 3083 3083 3082 3082 3082 3082 3082 3082 3082 3082 3082 3081 3081 3080 3080 3079 3079 3078 3077 3077 3076 3076 3076 3075 3075 3074 3073 3073 3072 3072 3071 3071 3070 3070 3069 3068 3068 3067 3067 3066 3065 3064 3063 3062 3061
3080 3080 3080 3080 3079 3079 3079 3079 3079 3079 3080 3080 3081 3081 3082 3082 3082 3082 3082 3082 3082 3082 3081 3081 3081 3080 3080 3080 3080 3080 3080 3080 3080 3080 3079 3079 3079 3078 3078 3077 3076 3076 3075 3074 3074 3074 3073 3073 3072 3072 3071 3070 3070 3069 3069 3068 3067 3067 3067 3066 3065 3064 3064 3063 3062 3061 3060 3059 3057
3079 3078 3078 3078 3078 3078 3077 3077 3077 3077 3077 3078 3078 3078 3079 3079 3079 3079 3079 3079 3079 3079 3079 3079 3078 3078 3078 3078 3078 3078 3078 3078 3078 3077 3077 3077 3076 3076 3075 3075 3074 3073 3073 3072 3072 3071 3071 3070 3070 3069 3069 3068 3067 3067 3066 3065 3065 3064 3064 3063 3062 3062 3061 3060 3059 3058 3057 3056 3055
3077 3077 3077 3076 3076 3076 3076 3076 3075 3075 3075 3075 3076 3076 3076 3077 3077 3077 3077 3077 3077 3077 3077 3076 3076 3076 3076 3076 3076 3076 3076 3076 3075 3075 3075 3074 3074 3073 3073 3072 3072 3071 3071 3070 3070 3069 3069 3068 3067 3067 3066 3066 3065 3064 3063 3063 3062 3062 3061 3060 3060 3059 3058 3057 3057 3056 3054 3053 3052
3075 3075 3075 3074 3074 3074 3074 3074 3073 3073 3073 3073 3073 3074 3074 3074 3074 3074 3074 3074 3074 3074 3074 3074 3074 3074 3073 3073 3073 3073 3073 3073 3073 3072 3072 3072 3071 3071 3070 3070 3069 3069 3069 3068 3067 3067 3066 3066 3065 3064 3064 3063 3062 3062 3061 3061 3060 3059 3059 3058 3057 3057 3056 3055 3054 3053 3052 3052 3051
3073 3073 3073 3072 3072 3072 3072 3072 3072 3071 3071 3071 3071 3071 3071 3072 3072 3072 3072 3072 3072 3072 3072 3072 3072 3071 3071 3071 3071 3071 3070 3070 3070 3070 3069 3069 3069 3068 3068 3067 3067 3067 3067 3066 3065 3065 3064 3063 3063 3062 3061 3061 3060 3059 3059 3058 3057 3057 3056 3056 3055 3054 3053 3053 3052 3051 3051 3050 3049
3071 3071 3071 3071 3071 3070 3070 3070 3070 3069 3069 3069 3069 3069 3069 3069 3069 3070 3070 3070 3070 3070 3069 3069 3069 3069 3069 3068 3068 3068 3068 3067 3067 3067 3067 3067 3066 3066 3066 3066 3065 3065 3064 3064 3063 3062 3062 3061 3060 3060 3059 3058 3058 3057 3057 3056 3055 3055 3054 3053 3052 3052 3051 3051 3050 3050 3049 3048 3048
3069 3069 3069 3069 3069 3068 3068 3068 3068 3067 3067 3067 3067 3067 3067 3067 3067 3067 3067 3067 3067 3067 3067 3067 3067 3067 3066 3066 3066 3066 3065 3065 3065 3065 3065 3064 3064 3064 3064 3064 3063 3063 3062 3062 3061 3060 3060 3059 3058 3057 3057 3056 3056 3055 3054 3054 3053 3052 3052 3051 3051 3050 3049 3049 3048 3048 3047 3047 3046
3067 3067 3067 3067 3067 3067 3066 3066 3066 3065 3065 3065 3065 3065 3065 3065 3065 3065 3065 3065 3065 3065 3065 3064 3064 3064 3064 3064 3063 3063 3063 3063 3063 3063 3062 3062 3062 3062 3062 3062 3061 3061 3060 3060 3059 3058 3058 3057 3056 3056 3055 3054 3053 3053 3052 3052 3051 3050 3050 3049 3048 3048 3047 3047 3046 3046 3045 3045 3044
3066 3066 3065 3065 3065 3064 3064 3064 3063 3063 3063 3063 3062 3062 3062 3062 3062 3062 3062 3062 3062 3062 3062 3062 3062 3062 3062 3062 3062 3061 3061 3061 3061 3061 3061 3061 3061 3061 3060 3060 3059 3059 3058 3058 3057 3057 3056 3055 3054 3053 3053 3052 3052 3051 3050 3050 3049 3048 3048 3047 3046 3046 3045 3044 3044 3043 3043 3042 3042
3064 3064 3063 3063 3062 3062 3062 3062 3061 3061 3061 3060 3060 3060 3060 3060 3060 3060 3060 3060 3060 3060 3060 3060 3060 3060 3060 3060 3059 3059 3059 3059 3059 3059 3059 3059 3059 3059 3058 3058 3057 3057 3057 3056 3055 3055 3054 3053 3052 3052 3051 3050 3050 3049 3048 3048 3047 3047 3046 3045 3044 3043 3043 3042 3042 3041 3041 3040 3040
3062 3062 3061 3061 3060 3060 3059 3059 3058 3058 3058 3057 3057 3057 3057 3057 3057 3057 3057 3058 3058 3058 3058 3058 3058 3058 3058 3058 3058 3058 3058 3058 3058 3058 3058 3057 3057 3057 3057 3056 3056 3055 3055 3054 3053 3053 3052 3051 3051 3050 3049 3049 3048 3047 3047 3046 3046 3045 3044 3043 3042 3042 3041 3040 3039 3039 3038 3038 3037
3060 3060 3059 3058 3058 3057 3057 3057 3056 3056 3055 3055 3055 3054 3054 3054 3055 3055 3055 3056 3056 3056 3056 3056 3056 3056 3056 3056 3056 3057 3057 3057 3057 3057 3056 3056 3056 3055 3055 3054 3054 3053 3053 3052 3052 3051 3050 3050 3049 3048 3047 3047 3047 3046 3045 3045 3044 3043 3042 3042 3041 3040 3039 3038 3037 3037 3036 3036 3035
3058 3058 3057 3057 3056 3055 3055 3054 3054 3053 3053 3052 3052 3052 3052 3052 3053 3053 3053 3053 3054 3054 3054 3054 3054 3055 3055 3055 3055 3055 3055 3055 3055 3055 3055 3054 3054 3054 3053 3053 3052 3052 3051 3051 3050 3049 3049 3048 3047 3047 3046 3046 3045 3044 3044 3043 3042 3042 3041 3040 3039 3038 3037 3037 3036 3035 3035 3034 3033
3057 3056 3055 3055 3054 3053 3053 3052 3052 3051 3051 3051 3051 3051 3051 3051 3051 3051 3052 3052 3052 3052 3053 3053 3053 3053 3053 3054 3054 3054 3054 3054 3054 3054 3053 3053 3053 3052 3052 3052 3051 3051 3050 3049 3049 3048 3048 3047 3046 3046 3045 3044 3044 3043 3042 3042 3041 3040 3039 3038 3037 3037 3036 3035 3034 3033 3033 3032 3032
3055 3055 3054 3053 3052 3052 3051 3051 3050 3050 3049 3049 3049 3049 3049 3049 3050 3050 3050 3051 3051 3051 3052 3052 3052 3052 3052 3052 3052 3053 3053 3052 3052 3052 3052 3052 3052 3051 3051 3050 3050 3049 3049 3048 3047 3047 3047 3046 3045 3044 3044 3043 3042 3042 3041 3040 3040 3039 3038 3037 3036 3035 3034 3033 3032 3032 3031 3030 3030
3054 3053 3053 3052 3051 3051 3050 3049 3049 3048 3048 3048 3048 3048 3048 3048 3048 3049 3049 3049 3050 3050 3050 3051 3051 3051 3051 3052 3052 3052 3052 3052 3051 3051 3051 3051 3050 3050 3050 3049 3048 3048 3047 3047 3046 3045 3045 3044 3043 3043 3042 3042 3041 3041 3040 3039 3038 3037 3036 3035 3034 3033 3032 3032 3031 3030 3029 3029 3028
3053 3052 3052 3051 3050 3049 3049 3048 3048 3047 3047 3047 3047 3047 3047 3047 3047 3048 3048 3048 3049 3049 3049 3050 3050 3050 3050 3051 3051 3051 3051 3050 3050 3050 3050 3050 3049 3049 3048 3048 3047 3046 3046 3045 3044 3044 3043 3043 3042 3042 3041 3040 3040 3039 3038 3038 3037 3036 3035 3034 3033 3032 3032 3031 3030 3029 3028 3028 3027
3052 3051 3050 3049 3049 3048 3047 3047 3047 3047 3046 3046 3046 3046 3046 3047 3047 3047 3047 3048 3048 3048 3049 3049 3049 3049 3050 3050 3050 3050 3050 3049 3049 3049 3049 3048 3048 3047 3047 3047 3046 3045 3044 3044 3043 3042 3042 3042 3041 3040 3040 3039 3039 3038 3037 3037 3036 3035 3034 3033 3032 3032 3031 3030 3029 3029 3028 3027 3027
3051 3050 3049 3048 3048 3047 3047 3046 3046 3046 3046 3046 3046 3046 3046 3046 3046 3047 3047 3047 3047 3048 3048 3048 3048 3049 3049 3049 3049 3049 3049 3048 3048 3048 3048 3047 3047 3046 3046 3045 3045 3044 3043 3043 3042 3042 3041 3041 3040 3040 3039 3039 3038 3037 3037 3036 3035 3035 3034 3033 3032 3032 3031 3030 3029 3028 3028 3027 3027
3050 3049 3048 3047 3047 3046 3046 3046 3046 3045 3045 3045 3045 3046 3046 3046 3046 3046 3047 3047 3047 3047 3047 3047 3048 3048 3048 3048 3048 3047 3047 3047 3047 3047 3047 3046 3046 3045 3045 3044 3043 3043 3042 3042 3042 3041 3041 3040 3040 3039 3039 3038 3038 3037 3037 3036 3035 3034 3033 3033 3032 3031 3031 3030 3029 3028 3027 3027 3026
3049 3048 3047 3047 3046 3046 3045 3045 3045 3045 3045 3045 3045 3045 3045 3046 3046 3046 3046 3047 3047 3047 3047 3047 3047 3047 3047 3047 3047 3047 3047 3047 3047 3046 3046 3045 3045 3044 3044 3043 3043 3042 3042 3042 3041 3041 3040 3040 3039 3039 3038 3038 3037 3037 3036 3035 3035 3034 3033 3032 3032 3031 3030 3029 3028 3028 3027 3026 3025
3049 3048 3047 3047 3046 3046 3045 3045 3045 3045 3045 3045 3045 3045 3045 3045 3046 3046 3046 3046 3046 3046 3046 3046 3046 3046 3046 3046 3046 3046 3046 3046 3046 3046 3045 3045 3044 3044 3043 3043 3042 3042 3042 3041 3041 3040 3040 3039 3039 3038 3038 3037 3037 3036 3036 3035 3034 3034 3033 3032 3032 3031 3030 3029 3028 3027 3026 3025 3025
3049 3048 3047 3046 3046 3045 3045 3045 3045 3045 3045 3045 3045 3045 3045 3045 3045 3045 3046 3046 3046 3046 3046 3046 3046 3046 3046 3046 3046 3046 3046 3046 3046 3045 3045 3045 3044 3044 3043 3042 3042 3042 3041 3041 3040 3040 3039 3039 3038 3038 3037 3037 3037 3036 3035 3035 3034 3033 3033 3032 3031 3030 3029 3028 3027 3026 3025 3024 3023
3049 3048 3047 3047 3046 3045 3045 3045 3045 3045 3045 3045 3045 3045 3045 3045 3045 3045 3045 3045 3045 3045 3046 3046 3046 3046 3046 3046 3046 3046 3046 3046 3046 3045 3045 3044 3044 3043 3042 3042 3042 3041 3041 3041 3040 3040 3039 3039 3038 3038 3037 3037 3036 3036 3035 3035 3034 3033 3032 3031 3030 3029 3028 3027 3026 3025 3024 3023 3022
3049 3048 3047 3047 3046 3046 3045 3045 3045 3045 3045 3045 3045 3045 3045 3045 3045 3045 3046 3046 3046 3046 3046 3046 3046 3046 3046 3046 3046 3046 3046 3046 3045 3045 3044 3044 3043 3043 3042 3042 3042 3041 3041 3040 3040 3039 3039 3039 3038 3038 3037 3037 3036 3035 3035 3034 3033 3032 3031 3030 3029 3028 3027 3026 3024 3023 3022 3021 3020
3049 3048 3047 3047 3047 3046 3046 3046 3046 3045 3045 3045 3045 3045 3045 3046 3046 3046 3046 3046 3046 3046 3046 3046 3046 3046 3046 3046 3046 3046 3045 3045 3045 3044 3044 3043 3043 3042 3042 3042 3041 3041 3041 3040 3040 3039 3039 3038 3038 3037 3037 3036 3035 3035 3034 3033 3032 3031 3030 3029 3027 3026 3025 3024 3023 3022 3020 3019 3018
3049 3048 3048 3047 3047 3047 3047 3046 3046 3046 3046 3046 3046 3046 3046 3046 3046 3046 3046 3046 3046 3046 3046 3046 3046 3046 3046 3046 3046 3045 3045 3045 3044 3044 3043 3043 3042 3042 3042 3042 3041 3041 3041 3040 3040 3039 3038 3038 3037 3037 3036 3035 3034 3033 3032 3031 3030 3029 3028 3027 3026 3025 3024 3022 3021 3020 3019 3018 3017
3049 3049 3048 3048 3048 3047 3047 3047 3047 3047 3047 3046 3046 3046 3046 3046 3046 3047 3047 3047 3046 3046 3046 3046 3046 3046 3046 3046 3045 3045 3045 3044 3044 3043 3043 3042 3042 3042 3042 3041 3041 3041 3040 3040 3039 3038 3038 3037 3037 3036 3035 3034 3033 3032 3031 3030 3029 3028 3027 3026 3025 3024 3022 3022 3020 3019 3018 3017 3016